Location: Newark
(42.8481°N, 0.4872°E)
Time: 13:17:56
(UTC+00:00)

Tiros 1 - Visible Passes

Search period start: 30 October 2020 00:00
Search period end: 09 November 2020 00:00
Orbit: 630 x 663 km, 48.4° (Epoch: 29 October)

Date Brightness Start Highest point End Pass type
(mag) Time Alt. Az. Time Alt. Az. Time Alt. Az.
30 Oct 9.3 03:24:14 23° ENE 03:24:14 23° ENE 03:25:57 10° ENE visible
30 Oct 7.8 05:01:54 27° WNW 05:03:53 42° N 05:08:17 10° ENE visible
31 Oct 8.5 03:49:13 34° NE 03:49:13 34° NE 03:52:00 10° ENE visible
31 Oct 7.9 05:26:53 16° WNW 05:30:12 42° N 05:34:36 10° ENE visible
01 Nov 7.9 04:14:10 42° N 04:14:10 42° N 04:18:08 10° ENE visible
01 Nov 7.7 05:51:58 10° WNW 05:56:29 50° NNE 06:01:00 10° E visible
02 Nov 10.1 03:01:27 12° ENE 03:01:27 12° ENE 03:01:52 10° ENE visible
02 Nov 7.8 04:39:07 37° NNW 04:40:02 41° N 04:44:26 10° ENE visible
03 Nov 9.5 03:26:24 20° NE 03:26:24 20° NE 03:28:00 10° ENE visible
03 Nov 7.7 05:04:04 26° NW 05:06:20 49° NNE 05:10:50 10° E visible
04 Nov 8.7 03:51:23 31° NE 03:51:23 31° NE 03:54:16 10° ENE visible
04 Nov 7.2 05:29:03 17° WNW 05:32:32 70° NNE 05:37:09 10° ESE visible
05 Nov 7.8 04:16:22 47° NNE 04:16:22 47° NNE 04:20:40 10° E visible
05 Nov 7.2 05:54:03 10° WNW 05:58:34 69° SSW 06:03:09 10° SE visible
06 Nov 10.2 03:03:44 12° ENE 03:03:44 12° ENE 03:04:07 10° ENE visible
06 Nov 7.2 04:41:24 51° NW 04:42:23 67° NNE 04:47:00 10° ESE visible
07 Nov 9.5 03:28:50 21° ENE 03:28:50 21° ENE 03:30:30 10° E visible
07 Nov 7.0 05:06:30 34° WNW 05:08:26 73° SSW 05:13:02 10° SE visible
08 Nov 8.5 03:53:58 36° E 03:53:58 36° E 03:56:50 10° ESE visible
08 Nov 7.8 05:31:38 20° W 05:34:18 37° SW 05:38:33 10° SSE visible
